Weather History for Emporia, VA

Change the Weather History Date:

Tuesday, March 5, 2013

  Actual Average Record
Temperature  
Mean Temperature 37 °F -  
Max Temperature 50 °F 57 °F 80 °F (2004)
Min Temperature 24 °F 34 °F 17 °F (2002)
Degree Days  
Heating Degree Days 28    
Moisture  
Dew Point 30 °F    
Average Humidity 75    
Maximum Humidity 100    
Minimum Humidity 32    
Precipitation  
Precipitation 0.47 in - - ()
Sea Level Pressure  
Sea Level Pressure 29.98 in    
Wind  
Wind Speed 3 mph (East)    
Max Wind Speed 13 mph    
Max Gust Speed 18 mph    
Visibility 9 miles    
Events Rain , Snow    
Averages and records for this station are not official NWS values.
T = Trace of Precipitation, MM = Missing Value Source: NWS Daily Summary

Daily Weather History Graph

Daily Weather History Graph

Search for Another Location

Airport:

Trip Planner

Search our weather history database for the weather conditions in past years. The results will help you decide how hot, cold, wet, or windy it might be!

Date:

Astronomy

Mar. 05, 2013 Rise Set
Actual Time 6:34 AM EST 6:08 PM EST
Civil Twilight 6:08 AM EST 6:34 PM EST
Nautical Twilight 5:39 AM EST 7:04 PM EST
Astronomical Twilight 5:09 AM EST 7:34 PM EST
Moon 1:38 AM EST (3/5) 11:52 AM EST (3/5)
Length of Visible Light 12h 25m
Length of Day
11h 33m
Last Quarter, 41% of the Moon is Illuminated
Mar 5
Last Quarter
Mar 11
New
Mar 19
First Quarter
Mar 27
Full
Apr 3
Last Quarter

Hourly Weather History & Observations

Time (EST) Temp. Windchill Dew Point Humidity Pressure Visibility Wind Dir Wind Speed Gust Speed Precip Events Conditions
12:15 AM 26.6 °F - 26.6 °F 100% 30.07 in 10.0 mi Calm Calm - N/A   Clear
12:35 AM 26.6 °F - 21.2 °F 80% 30.07 in 10.0 mi Calm Calm - N/A   Clear
12:55 AM 24.8 °F - 21.2 °F 86% 30.08 in 10.0 mi Calm Calm - N/A   Clear
1:15 AM 28.4 °F - 23.0 °F 80% 30.09 in 10.0 mi Calm Calm - N/A   Clear
1:35 AM 30.2 °F 25.4 °F 23.0 °F 75% 30.08 in 10.0 mi NW 4.6 mph - N/A   Clear
1:55 AM 28.4 °F - 23.0 °F 80% 30.10 in 10.0 mi Calm Calm - N/A   Clear
2:15 AM 28.4 °F - 23.0 °F 80% 30.09 in 10.0 mi Calm Calm - N/A   Clear
2:35 AM 28.4 °F - 23.0 °F 80% 30.09 in 10.0 mi Calm Calm - N/A   Clear
2:55 AM 28.4 °F - 23.0 °F 80% 30.09 in 10.0 mi Calm Calm - N/A   Clear
3:15 AM 28.4 °F - 23.0 °F 80% 30.09 in 10.0 mi Calm Calm - N/A   Scattered Clouds
4:15 AM 28.4 °F - 23.0 °F 80% 30.10 in 10.0 mi Calm Calm - N/A   Overcast
4:35 AM 28.4 °F - 24.8 °F 86% 30.10 in 10.0 mi Calm Calm - N/A   Overcast
4:55 AM 30.2 °F - 26.6 °F 86% 30.10 in 10.0 mi Calm Calm - N/A   Overcast
5:15 AM 30.2 °F - 26.6 °F 86% 30.10 in 10.0 mi Calm Calm - N/A   Overcast
5:55 AM 32.0 °F - 26.6 °F 80% 30.11 in 10.0 mi Calm Calm - N/A   Mostly Cloudy
6:15 AM 32.0 °F - 28.4 °F 87% 30.10 in 10.0 mi Calm Calm - N/A   Mostly Cloudy
6:35 AM 32.0 °F - 26.6 °F 80% 30.11 in 10.0 mi Calm Calm - N/A   Overcast
6:55 AM 32.0 °F - 28.4 °F 87% 30.11 in 10.0 mi Calm Calm - N/A   Overcast
7:15 AM 32.0 °F - 28.4 °F 87% 30.10 in 10.0 mi Calm Calm - N/A   Overcast
7:35 AM 33.8 °F - 28.4 °F 81% 30.10 in 10.0 mi Calm Calm - N/A   Overcast
7:55 AM 33.8 °F - 26.6 °F 75% 30.12 in 10.0 mi Calm Calm - N/A   Mostly Cloudy
8:15 AM 35.6 °F 31.7 °F 28.4 °F 75% 30.10 in 10.0 mi NE 4.6 mph - N/A   Mostly Cloudy
8:35 AM 37.4 °F 32.1 °F 26.6 °F 65% 30.10 in 10.0 mi ENE 6.9 mph - N/A   Scattered Clouds
8:55 AM 37.4 °F 33.8 °F 26.6 °F 65% 30.10 in 10.0 mi East 4.6 mph - N/A   Mostly Cloudy
9:15 AM 37.4 °F 34.9 °F 26.6 °F 65% 30.10 in 10.0 mi East 3.5 mph - N/A Snow Light Snow
9:35 AM 41.0 °F - 26.6 °F 57% 30.10 in 10.0 mi Calm Calm - N/A   Overcast
9:55 AM 42.8 °F 38.0 °F 23.0 °F 46% 30.08 in 10.0 mi East 8.1 mph - N/A   Mostly Cloudy
10:15 AM 44.6 °F 40.7 °F 21.2 °F 39% 30.07 in - ENE 6.9 mph - N/A   Scattered Clouds
10:55 AM 46.4 °F 42.9 °F 23.0 °F 40% 30.07 in 10.0 mi East 6.9 mph - N/A   Clear
11:15 AM 46.4 °F 42.4 °F 21.2 °F 37% 30.06 in 10.0 mi East 8.1 mph - N/A   Mostly Cloudy
11:35 AM 50.0 °F - 23.0 °F 35% 30.05 in 10.0 mi East 4.6 mph - N/A   Overcast
11:55 AM 50.0 °F - 21.2 °F 32% 30.04 in 10.0 mi ESE 5.8 mph - N/A   Scattered Clouds
12:15 PM 50.0 °F - 23.0 °F 35% 30.03 in - East 5.8 mph - N/A   Mostly Cloudy
12:35 PM 50.0 °F - 23.0 °F 35% 30.02 in 10.0 mi East 5.8 mph - N/A   Overcast
12:55 PM 50.0 °F - 21.2 °F 32% 30.01 in 10.0 mi SE 4.6 mph - N/A   Overcast
1:15 PM 50.0 °F - 23.0 °F 35% 30.00 in 10.0 mi East 5.8 mph - N/A   Overcast
1:35 PM 50.0 °F - 23.0 °F 35% 29.99 in 10.0 mi East 5.8 mph - N/A   Overcast
1:55 PM 50.0 °F - 26.6 °F 40% 29.98 in 10.0 mi East 5.8 mph - N/A Rain Light Rain
2:15 PM 46.4 °F 45.2 °F 32.0 °F 57% 29.97 in - East 3.5 mph - N/A Rain Light Rain
2:35 PM 46.4 °F - 33.8 °F 62% 29.97 in 10.0 mi Calm Calm - N/A Rain Light Rain
2:55 PM 46.4 °F - 33.8 °F 62% 29.97 in 10.0 mi Calm Calm - N/A Rain Rain
3:15 PM 46.4 °F - 35.6 °F 66% 29.97 in 10.0 mi Calm Calm - N/A   Unknown
3:35 PM 44.6 °F 41.4 °F 35.6 °F 71% 29.96 in 10.0 mi ENE 5.8 mph - N/A   Drizzle
3:55 PM 44.6 °F - 35.6 °F 71% 29.96 in 7.0 mi Calm Calm - N/A   Drizzle
4:15 PM 42.8 °F 40.1 °F 37.4 °F 81% 29.95 in - East 4.6 mph - 0.02 in Rain Light Rain
4:35 PM 42.8 °F 41.1 °F 39.2 °F 87% 29.94 in 10.0 mi East 3.5 mph - 0.02 in Rain Rain
4:55 PM 42.8 °F 41.1 °F 39.2 °F 87% 29.94 in 5.0 mi East 3.5 mph - 0.03 in   Unknown
5:15 PM 42.8 °F - 41.0 °F 93% 29.93 in 5.0 mi Calm Calm - 0.01 in Rain Light Rain
5:35 PM 41.0 °F 39.0 °F 41.0 °F 100% 29.93 in 10.0 mi East 3.5 mph - N/A   Unknown
5:55 PM 41.0 °F 37.1 °F 41.0 °F 100% 29.93 in 5.0 mi East 5.8 mph - 0.02 in Rain Rain
6:15 PM 41.0 °F 37.1 °F 39.2 °F 93% 29.92 in 5.0 mi East 5.8 mph - 0.03 in Rain Rain
6:35 PM 41.0 °F 36.4 °F 37.4 °F 87% 29.91 in 7.0 mi East 6.9 mph - 0.06 in Rain Rain
6:55 PM 41.0 °F 35.8 °F 37.4 °F 87% 29.89 in 10.0 mi East 8.1 mph - 0.07 in Rain Light Rain
7:15 PM 39.2 °F 34.2 °F 37.4 °F 93% 29.89 in 10.0 mi East 6.9 mph - N/A   Overcast
7:35 PM 39.2 °F 35.9 °F 37.4 °F 93% 29.89 in 10.0 mi East 4.6 mph - N/A   Unknown
7:55 PM 39.2 °F 32.0 °F 35.6 °F 87% 29.88 in 7.0 mi East 11.5 mph - N/A Rain Light Rain
8:15 PM 37.4 °F 29.3 °F 35.6 °F 93% 29.86 in 4.0 mi East 12.7 mph 17.3 mph 0.01 in   Overcast
8:35 PM 35.6 °F 29.2 °F 35.6 °F 100% 29.85 in - East 8.1 mph 18.4 mph 0.02 in Rain Rain
8:55 PM 35.6 °F 27.5 °F 33.8 °F 93% 29.82 in 7.0 mi ENE 11.5 mph 18.4 mph 0.02 in   Overcast
9:15 PM 35.6 °F 29.2 °F 33.8 °F 93% 29.81 in 10.0 mi ENE 8.1 mph 17.3 mph N/A   Overcast
9:35 PM 35.6 °F 28.6 °F 33.8 °F 93% 29.80 in 10.0 mi East 9.2 mph - N/A   Overcast
9:55 PM 35.6 °F 27.5 °F 33.8 °F 93% 29.77 in 10.0 mi ENE 11.5 mph - N/A   Overcast
10:15 PM 35.6 °F 29.2 °F 33.8 °F 93% 29.75 in 10.0 mi ENE 8.1 mph - N/A   Overcast
10:35 PM 35.6 °F 29.9 °F 33.8 °F 93% 29.75 in 4.0 mi East 6.9 mph - 0.03 in Snow Light Snow
10:55 PM 35.6 °F 28.6 °F 35.6 °F 100% 29.72 in 4.0 mi ENE 9.2 mph - 0.06 in Rain Rain
11:15 PM 35.6 °F 30.7 °F 35.6 °F 100% 29.69 in 3.0 mi ENE 5.8 mph - 0.04 in Snow Light Snow
11:35 PM 35.6 °F 30.7 °F 35.6 °F 100% 29.70 in - NE 5.8 mph - 0.11 in Snow Light Snow
11:55 PM 35.6 °F 28.6 °F 35.6 °F 100% 29.66 in 1.8 mi ENE 9.2 mph - 0.27 in Snow Light Snow